Time,TemperatureF,DewpointF,PressureIn,WindDirection,WindDirectionDegrees,WindSpeedMPH,WindSpeedGustMPH,Humidity,HourlyPrecipIn,Conditions,Clouds,dailyrainin,SoftwareType,DateUTC
2013-01-21 00:02:00,14.0,13.0,29.16,NNW,330,0.0,-999.0,96,18.62,,,-99.99,,2013-01-21 06:02:00,
2013-01-21 00:12:00,14.0,13.0,29.16,NNW,330,0.0,-999.0,96,18.62,,,-99.99,,2013-01-21 06:12:00,
2013-01-21 00:23:00,15.0,14.0,29.17,NW,305,3.0,-999.0,96,18.62,,,-99.99,,2013-01-21 06:23:00,
2013-01-21 00:33:00,15.0,14.0,29.17,NW,305,3.0,-999.0,96,18.62,,,-99.99,,2013-01-21 06:33:00,
2013-01-21 00:43:00,15.0,14.0,29.17,NW,305,3.0,-999.0,96,18.62,,,-99.99,,2013-01-21 06:43:00,
2013-01-21 00:53:00,15.0,14.0,29.16,NW,304,4.0,-999.0,96,18.62,,,-99.99,,2013-01-21 06:53:00,
2013-01-21 01:03:00,15.0,14.0,29.16,NW,304,4.0,-999.0,96,18.62,,,-99.99,,2013-01-21 07:03:00,
2013-01-21 01:13:00,15.0,14.0,29.16,NW,304,4.0,-999.0,96,18.62,,,-99.99,,2013-01-21 07:13:00,
2013-01-21 01:22:00,16.0,15.0,29.16,NW,323,13.0,-999.0,95,18.62,,,-99.99,,2013-01-21 07:22:00,
2013-01-21 01:33:00,16.0,15.0,29.16,NW,323,13.0,-999.0,95,18.62,,,-99.99,,2013-01-21 07:33:00,
2013-01-21 01:42:00,16.0,15.0,29.16,NW,323,13.0,-999.0,95,18.62,,,-99.99,,2013-01-21 07:42:00,
2013-01-21 01:53:00,15.0,13.0,29.16,NNW,335,6.0,-999.0,93,18.62,,,-99.99,,2013-01-21 07:53:00,
2013-01-21 02:02:00,15.0,13.0,29.16,NNW,335,6.0,-999.0,93,18.62,,,-99.99,,2013-01-21 08:02:00,
2013-01-21 02:13:00,15.0,13.0,29.16,NNW,335,6.0,-999.0,93,18.62,,,-99.99,,2013-01-21 08:13:00,
2013-01-21 02:22:00,15.0,13.0,29.16,NNW,336,8.0,-999.0,93,18.62,,,-99.99,,2013-01-21 08:22:00,
2013-01-21 02:33:00,15.0,13.0,29.16,NNW,336,8.0,-999.0,93,18.62,,,-99.99,,2013-01-21 08:33:00,
2013-01-21 02:43:00,15.0,13.0,29.16,NNW,336,8.0,-999.0,93,18.62,,,-99.99,,2013-01-21 08:43:00,
2013-01-21 02:53:00,15.0,13.0,29.17,NNW,330,10.0,-999.0,93,18.62,,,-99.99,,2013-01-21 08:53:00,
2013-01-21 03:02:00,15.0,13.0,29.17,NNW,330,10.0,-999.0,93,18.62,,,-99.99,,2013-01-21 09:02:00,
2013-01-21 03:12:00,15.0,13.0,29.17,NNW,330,10.0,-999.0,93,18.62,,,-99.99,,2013-01-21 09:12:00,
2013-01-21 03:22:00,13.0,9.0,29.17,NW,305,15.0,-999.0,85,18.62,,,-99.99,,2013-01-21 09:22:00,
2013-01-21 03:33:00,13.0,9.0,29.17,NW,305,15.0,-999.0,85,18.62,,,-99.99,,2013-01-21 09:33:00,
2013-01-21 03:43:00,13.0,9.0,29.17,NW,305,15.0,-999.0,85,18.62,,,-99.99,,2013-01-21 09:43:00,
2013-01-21 03:53:00,13.0,10.0,29.17,NNW,346,10.0,-999.0,89,18.62,,,-99.99,,2013-01-21 09:53:00,
2013-01-21 04:02:00,13.0,10.0,29.17,NNW,346,10.0,-999.0,89,18.62,,,-99.99,,2013-01-21 10:02:00,
2013-01-21 04:12:00,13.0,10.0,29.17,NNW,346,10.0,-999.0,89,18.62,,,-99.99,,2013-01-21 10:12:00,
2013-01-21 04:22:00,12.0,8.0,29.17,NNW,328,11.0,-999.0,83,18.62,,,-99.99,,2013-01-21 10:22:00,
2013-01-21 04:33:00,12.0,8.0,29.17,NNW,328,11.0,-999.0,83,18.62,,,-99.99,,2013-01-21 10:33:00,
2013-01-21 04:43:00,12.0,8.0,29.17,NNW,328,11.0,-999.0,83,18.62,,,-99.99,,2013-01-21 10:43:00,
2013-01-21 04:53:00,12.0,7.0,29.17,NNW,345,10.0,-999.0,79,18.62,,,-99.99,,2013-01-21 10:53:00,
2013-01-21 05:02:00,12.0,7.0,29.17,NNW,345,10.0,-999.0,79,18.62,,,-99.99,,2013-01-21 11:02:00,
2013-01-21 05:13:00,12.0,7.0,29.17,NNW,345,10.0,-999.0,79,18.62,,,-99.99,,2013-01-21 11:13:00,
2013-01-21 05:23:00,11.0,6.0,29.16,North,1,7.0,-999.0,79,18.62,,,-99.99,,2013-01-21 11:23:00,
2013-01-21 05:33:00,11.0,6.0,29.16,North,1,7.0,-999.0,79,18.62,,,-99.99,,2013-01-21 11:33:00,
2013-01-21 05:43:00,11.0,6.0,29.16,North,1,7.0,-999.0,79,18.62,,,-99.99,,2013-01-21 11:43:00,
2013-01-21 05:53:00,9.0,4.0,29.16,NNE,21,11.0,-999.0,79,18.62,,,-99.99,,2013-01-21 11:53:00,
2013-01-21 06:02:00,9.0,4.0,29.16,NNE,21,11.0,-999.0,79,18.62,,,-99.99,,2013-01-21 12:02:00,
2013-01-21 06:12:00,9.0,4.0,29.16,NNE,21,11.0,-999.0,79,18.62,,,-99.99,,2013-01-21 12:12:00,
2013-01-21 06:22:00,8.0,3.0,29.17,NNW,342,8.0,-999.0,79,18.62,,,-99.99,,2013-01-21 12:22:00,
2013-01-21 06:33:00,8.0,3.0,29.17,NNW,342,8.0,-999.0,79,18.62,,,-99.99,,2013-01-21 12:33:00,
2013-01-21 06:43:00,8.0,3.0,29.17,NNW,342,8.0,-999.0,79,18.62,,,-99.99,,2013-01-21 12:43:00,
2013-01-21 06:53:00,8.0,3.0,29.17,NNE,30,7.0,-999.0,80,18.62,,,-99.99,,2013-01-21 12:53:00,
2013-01-21 07:02:00,8.0,3.0,29.17,NNE,30,7.0,-999.0,80,18.62,,,-99.99,,2013-01-21 13:02:00,
2013-01-21 07:13:00,8.0,3.0,29.17,NNE,30,7.0,-999.0,80,18.62,,,-99.99,,2013-01-21 13:13:00,
2013-01-21 07:23:00,7.0,4.0,29.18,NE,37,8.0,-999.0,87,18.62,,,-99.99,,2013-01-21 13:23:00,
2013-01-21 07:33:00,7.0,4.0,29.18,NE,37,8.0,-999.0,87,18.62,,,-99.99,,2013-01-21 13:33:00,
2013-01-21 07:43:00,7.0,4.0,29.18,NE,37,8.0,-999.0,87,18.62,,,-99.99,,2013-01-21 13:43:00,
2013-01-21 07:53:00,6.0,3.0,29.18,North,356,5.0,-999.0,88,18.62,,,-99.99,,2013-01-21 13:53:00,
2013-01-21 08:03:00,6.0,3.0,29.18,North,356,5.0,-999.0,88,18.62,,,-99.99,,2013-01-21 14:03:00,
2013-01-21 08:12:00,6.0,3.0,29.18,North,356,5.0,-999.0,88,18.62,,,-99.99,,2013-01-21 14:12:00,
2013-01-21 08:23:00,6.0,3.0,29.19,NE,34,4.0,-999.0,89,18.62,,,-99.99,,2013-01-21 14:23:00,
2013-01-21 08:33:00,6.0,3.0,29.19,NE,34,4.0,-999.0,89,18.62,,,-99.99,,2013-01-21 14:33:00,
2013-01-21 08:43:00,6.0,3.0,29.19,NE,34,4.0,-999.0,89,18.62,,,-99.99,,2013-01-21 14:43:00,
2013-01-21 08:53:00,6.0,3.0,29.19,North,359,5.0,-999.0,89,18.62,,,-99.99,,2013-01-21 14:53:00,
2013-01-21 09:03:00,6.0,3.0,29.19,North,359,5.0,-999.0,89,18.62,,,-99.99,,2013-01-21 15:03:00,
2013-01-21 09:13:00,6.0,3.0,29.19,North,359,5.0,-999.0,89,18.62,,,-99.99,,2013-01-21 15:13:00,
2013-01-21 09:23:00,6.0,3.0,29.20,North,8,6.0,-999.0,88,18.62,,,-99.99,,2013-01-21 15:23:00,
2013-01-21 09:33:00,6.0,3.0,29.20,North,8,6.0,-999.0,88,18.62,,,-99.99,,2013-01-21 15:33:00,
2013-01-21 09:43:00,6.0,3.0,29.20,North,8,6.0,-999.0,88,18.62,,,-99.99,,2013-01-21 15:43:00,
2013-01-21 09:53:00,6.0,2.0,29.20,NNW,336,14.0,-999.0,82,18.62,,,-99.99,,2013-01-21 15:53:00,
2013-01-21 10:03:00,6.0,2.0,29.20,NNW,336,14.0,-999.0,82,18.62,,,-99.99,,2013-01-21 16:03:00,
2013-01-21 10:12:00,6.0,2.0,29.20,NNW,336,14.0,-999.0,82,18.62,,,-99.99,,2013-01-21 16:12:00,
2013-01-21 10:23:00,7.0,3.0,29.21,North,354,5.0,-999.0,83,18.62,,,-99.99,,2013-01-21 16:23:00,
2013-01-21 10:33:00,7.0,3.0,29.21,North,354,5.0,-999.0,83,18.62,,,-99.99,,2013-01-21 16:33:00,
2013-01-21 10:43:00,7.0,3.0,29.21,North,354,5.0,-999.0,83,18.62,,,-99.99,,2013-01-21 16:43:00,
2013-01-21 10:53:00,7.0,3.0,29.21,North,3,7.0,-999.0,83,18.62,,,-99.99,,2013-01-21 16:53:00,
2013-01-21 11:02:00,7.0,3.0,29.21,North,3,7.0,-999.0,83,18.62,,,-99.99,,2013-01-21 17:02:00,
2013-01-21 11:12:00,7.0,3.0,29.21,North,3,7.0,-999.0,83,18.62,,,-99.99,,2013-01-21 17:12:00,
2013-01-21 11:22:00,7.0,2.0,29.21,North,352,5.0,-999.0,81,18.62,,,-99.99,,2013-01-21 17:22:00,
2013-01-21 11:33:00,7.0,2.0,29.21,North,352,5.0,-999.0,81,18.62,,,-99.99,,2013-01-21 17:33:00,
2013-01-21 11:43:00,7.0,2.0,29.21,North,352,5.0,-999.0,81,18.62,,,-99.99,,2013-01-21 17:43:00,
2013-01-21 11:53:00,7.0,2.0,29.21,North,359,8.0,-999.0,80,18.62,,,-99.99,,2013-01-21 17:53:00,
2013-01-21 12:03:00,7.0,2.0,29.21,North,359,8.0,-999.0,80,18.62,,,-99.99,,2013-01-21 18:03:00,
2013-01-21 12:12:00,7.0,2.0,29.21,North,359,8.0,-999.0,80,18.62,,,-99.99,,2013-01-21 18:12:00,
2013-01-21 12:22:00,8.0,3.0,29.19,NW,316,8.0,-999.0,79,18.62,,,-99.99,,2013-01-21 18:22:00,
2013-01-21 12:33:00,8.0,3.0,29.19,NW,316,8.0,-999.0,79,18.62,,,-99.99,,2013-01-21 18:33:00,
2013-01-21 12:43:00,8.0,3.0,29.19,NW,316,8.0,-999.0,79,18.62,,,-99.99,,2013-01-21 18:43:00,
2013-01-21 12:53:00,8.0,3.0,29.18,NW,305,7.0,-999.0,79,18.62,,,-99.99,,2013-01-21 18:53:00,
2013-01-21 13:03:00,8.0,3.0,29.18,NW,305,7.0,-999.0,79,18.62,,,-99.99,,2013-01-21 19:03:00,
2013-01-21 13:12:00,10.0,5.0,29.17,WNW,298,7.0,-999.0,78,18.62,,,-99.99,,2013-01-21 19:12:00,
2013-01-21 13:22:00,10.0,5.0,29.17,WNW,298,7.0,-999.0,78,18.62,,,-99.99,,2013-01-21 19:22:00,
2013-01-21 13:33:00,10.0,5.0,29.17,WNW,298,7.0,-999.0,78,18.62,,,-99.99,,2013-01-21 19:33:00,
2013-01-21 13:43:00,10.0,5.0,29.17,WNW,298,7.0,-999.0,78,18.62,,,-99.99,,2013-01-21 19:43:00,
2013-01-21 13:53:00,10.0,5.0,29.15,NW,322,8.0,-999.0,78,18.62,,,-99.99,,2013-01-21 19:53:00,
2013-01-21 14:03:00,10.0,5.0,29.15,NW,322,8.0,-999.0,78,18.62,,,-99.99,,2013-01-21 20:03:00,
2013-01-21 14:12:00,10.0,5.0,29.15,NW,322,8.0,-999.0,78,18.62,,,-99.99,,2013-01-21 20:12:00,
2013-01-21 14:23:00,11.0,5.0,29.14,NW,321,6.0,-999.0,76,18.62,,,-99.99,,2013-01-21 20:23:00,
2013-01-21 14:33:00,11.0,5.0,29.14,NW,321,6.0,-999.0,76,18.62,,,-99.99,,2013-01-21 20:33:00,
2013-01-21 14:43:00,11.0,5.0,29.14,NW,321,6.0,-999.0,76,18.62,,,-99.99,,2013-01-21 20:43:00,
2013-01-21 14:53:00,12.0,6.0,29.14,NW,307,10.0,-999.0,76,18.62,,,-99.99,,2013-01-21 20:53:00,
2013-01-21 15:03:00,12.0,6.0,29.14,NW,307,10.0,-999.0,76,18.62,,,-99.99,,2013-01-21 21:03:00,
2013-01-21 15:12:00,12.0,6.0,29.14,NW,307,10.0,-999.0,76,18.62,,,-99.99,,2013-01-21 21:12:00,
2013-01-21 15:22:00,12.0,6.0,29.14,NW,309,3.0,-999.0,77,18.62,,,-99.99,,2013-01-21 21:22:00,
2013-01-21 15:33:00,12.0,6.0,29.14,NW,309,3.0,-999.0,77,18.62,,,-99.99,,2013-01-21 21:33:00,
2013-01-21 15:43:00,12.0,6.0,29.14,NW,309,3.0,-999.0,77,18.62,,,-99.99,,2013-01-21 21:43:00,
2013-01-21 15:53:00,12.0,6.0,29.13,NW,308,5.0,-999.0,77,18.62,,,-99.99,,2013-01-21 21:53:00,
2013-01-21 16:03:00,12.0,6.0,29.13,NW,308,5.0,-999.0,77,18.62,,,-99.99,,2013-01-21 22:03:00,
2013-01-21 16:12:00,12.0,6.0,29.13,NW,308,5.0,-999.0,77,18.62,,,-99.99,,2013-01-21 22:12:00,
2013-01-21 16:23:00,13.0,7.0,29.13,NNW,342,6.0,-999.0,75,18.62,,,-99.99,,2013-01-21 22:23:00,
2013-01-21 16:33:00,13.0,7.0,29.13,NNW,342,6.0,-999.0,75,18.62,,,-99.99,,2013-01-21 22:33:00,
2013-01-21 16:43:00,13.0,7.0,29.13,NNW,342,6.0,-999.0,75,18.62,,,-99.99,,2013-01-21 22:43:00,
2013-01-21 16:53:00,13.0,7.0,29.13,NW,326,5.0,-999.0,76,18.62,,,-99.99,,2013-01-21 22:53:00,
2013-01-21 17:03:00,13.0,7.0,29.13,NW,326,5.0,-999.0,76,18.62,,,-99.99,,2013-01-21 23:03:00,
2013-01-21 17:12:00,13.0,7.0,29.13,NW,326,5.0,-999.0,76,18.62,,,-99.99,,2013-01-21 23:12:00,
2013-01-21 17:22:00,13.0,7.0,29.12,WSW,253,0.0,-999.0,77,18.62,,,-99.99,,2013-01-21 23:22:00,
2013-01-21 17:33:00,13.0,7.0,29.12,WSW,253,0.0,-999.0,77,18.62,,,-99.99,,2013-01-21 23:33:00,
2013-01-21 17:43:00,13.0,7.0,29.12,WSW,253,0.0,-999.0,77,18.62,,,-99.99,,2013-01-21 23:43:00,
2013-01-21 17:53:00,13.0,7.0,29.11,WNW,290,0.0,-999.0,76,18.62,,,-99.99,,2013-01-21 23:53:00,
2013-01-21 18:02:00,13.0,7.0,29.11,WNW,290,0.0,-999.0,76,18.62,,,-99.99,,2013-01-22 00:02:00,
2013-01-21 18:12:00,13.0,7.0,29.11,WNW,290,0.0,-999.0,76,18.62,,,-99.99,,2013-01-22 00:12:00,
2013-01-21 18:22:00,14.0,8.0,29.11,NNE,32,2.0,-999.0,77,18.62,,,-99.99,,2013-01-22 00:22:00,
2013-01-21 18:33:00,14.0,8.0,29.11,NNE,32,2.0,-999.0,77,18.62,,,-99.99,,2013-01-22 00:33:00,
2013-01-21 18:43:00,14.0,8.0,29.11,NNE,32,2.0,-999.0,77,18.62,,,-99.99,,2013-01-22 00:43:00,
2013-01-21 18:53:00,14.0,8.0,29.11,North,359,0.0,-999.0,78,18.62,,,-99.99,,2013-01-22 00:53:00,
2013-01-21 19:02:00,14.0,8.0,29.11,North,359,0.0,-999.0,78,18.62,,,-99.99,,2013-01-22 01:02:00,
2013-01-21 19:12:00,14.0,8.0,29.11,North,359,0.0,-999.0,78,18.62,,,-99.99,,2013-01-22 01:12:00,
2013-01-21 19:23:00,13.0,8.0,29.12,NNW,340,0.0,-999.0,80,18.62,,,-99.99,,2013-01-22 01:23:00,
2013-01-21 19:33:00,13.0,8.0,29.12,NNW,340,0.0,-999.0,80,18.62,,,-99.99,,2013-01-22 01:33:00,
2013-01-21 19:43:00,13.0,8.0,29.12,NNW,340,0.0,-999.0,80,18.62,,,-99.99,,2013-01-22 01:43:00,
2013-01-21 19:52:00,13.0,8.0,29.12,NNW,340,0.0,-999.0,80,18.62,,,-99.99,,2013-01-22 01:52:00,
2013-01-21 20:02:00,13.0,8.0,29.12,NNW,340,0.0,-999.0,80,18.62,,,-99.99,,2013-01-22 02:02:00,
2013-01-21 20:12:00,13.0,8.0,29.12,NNW,340,0.0,-999.0,80,18.62,,,-99.99,,2013-01-22 02:12:00,
2013-01-21 20:22:00,13.0,8.0,29.12,NE,52,0.0,-999.0,80,18.62,,,-99.99,,2013-01-22 02:22:00,
2013-01-21 20:33:00,13.0,8.0,29.12,NE,52,0.0,-999.0,80,18.62,,,-99.99,,2013-01-22 02:33:00,
2013-01-21 20:43:00,13.0,8.0,29.12,NE,52,0.0,-999.0,80,18.62,,,-99.99,,2013-01-22 02:43:00,
2013-01-21 20:53:00,13.0,8.0,29.12,NE,38,2.0,-999.0,81,18.62,,,-99.99,,2013-01-22 02:53:00,
2013-01-21 21:02:00,13.0,8.0,29.12,NE,38,2.0,-999.0,81,18.62,,,-99.99,,2013-01-22 03:02:00,
2013-01-21 21:12:00,13.0,8.0,29.12,NE,38,2.0,-999.0,81,18.62,,,-99.99,,2013-01-22 03:12:00,
2013-01-21 21:22:00,13.0,9.0,29.11,ENE,66,3.0,-999.0,82,18.62,,,-99.99,,2013-01-22 03:22:00,
2013-01-21 21:33:00,13.0,9.0,29.11,ENE,66,3.0,-999.0,82,18.62,,,-99.99,,2013-01-22 03:33:00,
2013-01-21 21:42:00,13.0,9.0,29.11,ENE,66,3.0,-999.0,82,18.62,,,-99.99,,2013-01-22 03:42:00,
2013-01-21 21:53:00,12.0,8.0,29.12,East,80,6.0,-999.0,83,18.62,,,-99.99,,2013-01-22 03:53:00,
2013-01-21 22:02:00,12.0,8.0,29.12,East,80,6.0,-999.0,83,18.62,,,-99.99,,2013-01-22 04:02:00,
2013-01-21 22:12:00,12.0,8.0,29.12,East,80,6.0,-999.0,83,18.62,,,-99.99,,2013-01-22 04:12:00,
2013-01-21 22:22:00,12.0,8.0,29.11,ENE,62,0.0,-999.0,84,18.62,,,-99.99,,2013-01-22 04:22:00,
2013-01-21 22:33:00,12.0,8.0,29.11,ENE,62,0.0,-999.0,84,18.62,,,-99.99,,2013-01-22 04:33:00,
2013-01-21 22:42:00,12.0,8.0,29.11,ENE,62,0.0,-999.0,84,18.62,,,-99.99,,2013-01-22 04:42:00,
2013-01-21 22:52:00,11.0,7.0,29.11,ENE,68,3.0,-999.0,85,18.62,,,-99.99,,2013-01-22 04:52:00,
2013-01-21 23:00:00,11.0,8.0,29.11,ENE,68,0.0,-999.0,87,18.62,,,-99.99,,2013-01-22 05:00:00,
2013-01-21 23:03:00,11.0,7.0,29.11,ENE,68,3.0,-999.0,85,18.62,,,-99.99,,2013-01-22 05:03:00,
2013-01-21 23:12:00,11.0,7.0,29.11,ENE,68,3.0,-999.0,85,18.62,,,-99.99,,2013-01-22 05:12:00,
2013-01-21 23:22:00,11.0,8.0,29.11,ENE,68,0.0,-999.0,87,18.62,,,-99.99,,2013-01-22 05:22:00,
2013-01-21 23:33:00,11.0,8.0,29.11,ENE,68,0.0,-999.0,87,18.62,,,-99.99,,2013-01-22 05:33:00,
2013-01-21 23:43:00,11.0,8.0,29.11,ENE,68,0.0,-999.0,87,18.62,,,-99.99,,2013-01-22 05:43:00,
2013-01-21 23:53:00,11.0,8.0,29.11,ENE,68,0.0,-999.0,87,18.62,,,-99.99,,2013-01-22 05:53:00,